San Benito, TX

7:08 PM CDT on August 30, 2016 (GMT -0500)
Valley International

Weather History for KHRL - January, 2014

Change the Weather History Date:

Wednesday, January 15, 2014

  Actual Average Record
Temperature  
Mean Temperature 54 °F 60 °F  
Max Temperature 67 °F 71 °F 87 °F (1960)
Min Temperature 41 °F 49 °F 27 °F (1941)
Degree Days  
Heating Degree Days 11 7  
Month to date heating degree days 118 105  
Since 1 July heating degree days 492 353  
Cooling Degree Days 0 2  
Month to date cooling degree days 14 30  
Year to date cooling degree days 14 30  
Growing Degree Days 4 (Base 50)    
Moisture  
Dew Point 35 °F    
Average Humidity 53    
Maximum Humidity 83    
Minimum Humidity 22    
Precipitation  
Precipitation 0.00 in 0.02 in 1.64 in (2011)
Month to date precipitation 0.19 0.39  
Year to date precipitation 0.19 0.39  
Sea Level Pressure  
Sea Level Pressure 30.34 in    
Wind  
Wind Speed 10 mph (NNE)    
Max Wind Speed 17 mph    
Max Gust Speed 22 mph    
Visibility 10 miles    
Events      
T = Trace of Precipitation, MM = Missing Value Source: NWS Daily Summary

Daily Weather History Graph

Daily Weather History Graph

Search for Another Location

Airport or City:

Trip Planner

Search our weather history database for the weather conditions in past years. The results will help you decide how hot, cold, wet, or windy it might be!

Date:

Astronomy

Jan. 15, 2014 Rise Set
Actual Time 7:19 AM CST 6:00 PM CST
Civil Twilight 6:54 AM CST 6:25 PM CST
Nautical Twilight 6:26 AM CST 6:53 PM CST
Astronomical Twilight 5:58 AM CST 7:21 PM CST
Moon 5:53 PM CST (1/15) 6:41 AM CST (1/15)
Length of Visible Light 11h 30m
Length of Day
10h 40m
Full, 100% of the Moon is Illuminated
Jan 15
Full
Jan 15
Full
Jan 23
Last Quarter
Jan 30
New
Feb 6
First Quarter

Hourly Weather History & Observations

Time (CST) Temp. Windchill Dew Point Humidity Pressure Visibility Wind Dir Wind Speed Gust Speed Precip Events Conditions
12:52 AM 53.1 °F - 48.0 °F 83% 30.23 in 10.0 mi NW 9.2 mph - N/A   Clear
1:52 AM 53.1 °F - 42.1 °F 66% 30.26 in 10.0 mi North 10.4 mph - N/A   Clear
2:52 AM 52.0 °F - 37.9 °F 59% 30.28 in 10.0 mi North 11.5 mph - N/A   Clear
3:52 AM 53.1 °F - 37.9 °F 57% 30.30 in 10.0 mi North 15.0 mph - N/A   Clear
4:52 AM 50.0 °F - 37.0 °F 61% 30.34 in 10.0 mi NNW 10.4 mph - N/A   Clear
5:52 AM 48.0 °F - 36.0 °F 63% 30.37 in 10.0 mi North 12.7 mph - N/A   Clear
6:52 AM 48.0 °F - 36.0 °F 63% 30.41 in 10.0 mi NNW 11.5 mph - N/A   Clear
7:52 AM 46.0 °F 41.9 °F 36.0 °F 68% 30.43 in 10.0 mi NW 8.1 mph - N/A   Clear
8:52 AM 52.0 °F - 33.1 °F 49% 30.47 in 10.0 mi NNW 13.8 mph - N/A   Clear
9:52 AM 55.9 °F - 30.0 °F 37% 30.48 in 10.0 mi North 15.0 mph - N/A   Clear
10:52 AM 59.0 °F - 30.9 °F 35% 30.48 in 10.0 mi North 12.7 mph - N/A   Clear
11:52 AM 63.0 °F - 28.0 °F 27% 30.45 in 10.0 mi North 11.5 mph - N/A   Clear
12:52 PM 64.0 °F - 28.9 °F 27% 30.41 in 10.0 mi North 9.2 mph - N/A   Clear
1:52 PM 66.0 °F - 26.1 °F 22% 30.37 in 10.0 mi NNW 6.9 mph - N/A   Clear
2:52 PM 66.9 °F - 27.0 °F 22% 30.33 in 10.0 mi Variable 5.8 mph - N/A   Clear
3:52 PM 66.0 °F - 27.0 °F 23% 30.31 in 10.0 mi Calm Calm - N/A   Clear
4:24 PM 64.4 °F - 33.8 °F 32% 30.31 in 10.0 mi East 6.9 mph - N/A   Clear
4:52 PM 63.0 °F - 34.0 °F 34% 30.30 in 10.0 mi East 9.2 mph - N/A   Clear
5:52 PM 55.0 °F - 37.9 °F 53% 30.30 in 10.0 mi East 8.1 mph - N/A   Clear
6:52 PM 50.0 °F - 39.9 °F 68% 30.30 in 10.0 mi ESE 9.2 mph - N/A   Clear
7:52 PM 46.0 °F 43.1 °F 39.0 °F 76% 30.29 in 10.0 mi SE 5.8 mph - N/A   Clear
8:52 PM 44.1 °F 40.1 °F 37.0 °F 76% 30.29 in 10.0 mi South 6.9 mph - N/A   Clear
9:52 PM 43.0 °F 38.2 °F 37.0 °F 80% 30.27 in 10.0 mi SSE 8.1 mph - N/A   Clear
10:52 PM 43.0 °F 37.2 °F 37.9 °F 82% 30.26 in 10.0 mi South 10.4 mph - N/A   Clear
11:52 PM 42.1 °F 37.1 °F 37.0 °F 82% 30.25 in 10.0 mi SSE 8.1 mph - N/A   Clear